Weather History for Delaware, OH

Change the Weather History Date:

Wednesday, September 4, 2013

  Actual Average Record
Temperature  
Mean Temperature 62 °F -  
Max Temperature 78 °F 78 °F 94 °F (1938)
Min Temperature 46 °F 55 °F 42 °F (1946)
Degree Days  
Heating Degree Days 3    
Growing Degree Days 12 (Base 50)    
Moisture  
Dew Point 52 °F    
Average Humidity 74    
Maximum Humidity 100    
Minimum Humidity 41    
Precipitation  
Precipitation 0.00 in - - ()
Sea Level Pressure  
Sea Level Pressure 30.12 in    
Wind  
Wind Speed 2 mph (WSW)    
Max Wind Speed 10 mph    
Max Gust Speed -    
Visibility 9 miles    
Events      
Averages and records for this station are not official NWS values.
T = Trace of Precipitation, MM = Missing Value Source: NWS Daily Summary

Daily Weather History Graph

Daily Weather History Graph

Search for Another Location

Airport:

Trip Planner

Search our weather history database for the weather conditions in past years. The results will help you decide how hot, cold, wet, or windy it might be!

Date:

Astronomy

Sep. 04, 2013 Rise Set
Actual Time 7:03 AM EDT 7:58 PM EDT
Civil Twilight 6:35 AM EDT 8:26 PM EDT
Nautical Twilight 6:02 AM EDT 8:59 PM EDT
Astronomical Twilight 5:28 AM EDT 9:33 PM EDT
Moon 6:14 AM EDT (9/4) 7:18 PM EDT (9/4)
Length of Visible Light 13h 51m
Length of Day
12h 55m
Waning Crescent, 1% of the Moon is Illuminated
Sep 4
Waning Crescent
Sep 5
New
Sep 12
First Quarter
Sep 19
Full
Sep 26
Last Quarter

Hourly Weather History & Observations

Time (EDT) Temp. Dew Point Humidity Pressure Visibility Wind Dir Wind Speed Gust Speed Precip Events Conditions
12:15 AM 50.0 °F 48.2 °F 94% 30.08 in 10.0 mi Calm Calm - N/A   Clear
12:34 AM 51.8 °F 50.0 °F 94% 30.08 in 10.0 mi South 3.5 mph - N/A   Clear
12:54 AM 51.8 °F 50.0 °F 94% 30.09 in 10.0 mi South 3.5 mph - N/A   Clear
1:15 AM 50.0 °F 48.2 °F 94% 30.09 in 10.0 mi Calm Calm - N/A   Clear
1:34 AM 50.0 °F 46.4 °F 87% 30.09 in 10.0 mi Calm Calm - N/A   Clear
1:54 AM 50.0 °F 46.4 °F 87% 30.09 in 10.0 mi Calm Calm - N/A   Clear
2:15 AM 50.0 °F 46.4 °F 87% 30.10 in 10.0 mi West 3.5 mph - N/A   Clear
2:34 AM 50.0 °F 50.0 °F 100% 30.10 in 10.0 mi Calm Calm - N/A   Clear
2:54 AM 50.0 °F 48.2 °F 94% 30.10 in 10.0 mi Calm Calm - N/A   Clear
3:15 AM 48.2 °F 46.4 °F 93% 30.10 in 10.0 mi Calm Calm - N/A   Clear
3:34 AM 48.2 °F 46.4 °F 93% 30.10 in 7.0 mi Calm Calm - N/A   Clear
3:54 AM 48.2 °F 46.4 °F 93% 30.10 in 7.0 mi Calm Calm - N/A   Clear
4:15 AM 48.2 °F 46.4 °F 93% 30.11 in 7.0 mi Calm Calm - N/A   Clear
4:34 AM 46.4 °F 46.4 °F 100% 30.11 in 5.0 mi Calm Calm - N/A   Clear
4:55 AM 46.4 °F 46.4 °F 100% 30.11 in 7.0 mi Calm Calm - N/A   Clear
5:15 AM 46.4 °F 44.6 °F 93% 30.11 in 7.0 mi Calm Calm - N/A   Clear
5:34 AM 46.4 °F 44.6 °F 93% 30.12 in 7.0 mi Calm Calm - N/A   Clear
5:55 AM 46.4 °F 44.6 °F 93% 30.12 in 7.0 mi Calm Calm - N/A   Clear
6:15 AM 46.4 °F 44.6 °F 93% 30.12 in 3.0 mi Calm Calm - N/A   Clear
6:34 AM 46.4 °F 44.6 °F 93% 30.13 in 5.0 mi Calm Calm - N/A   Clear
6:55 AM 46.4 °F 44.6 °F 93% 30.13 in 7.0 mi Calm Calm - N/A   Clear
7:15 AM 46.4 °F 44.6 °F 93% 30.13 in 4.0 mi Calm Calm - N/A   Clear
7:34 AM 46.4 °F 46.4 °F 100% 30.14 in 2.0 mi Calm Calm - N/A   Clear
7:55 AM 50.0 °F 48.2 °F 94% 30.14 in 3.0 mi Calm Calm - N/A   Clear
8:14 AM 51.8 °F 51.8 °F 100% 30.15 in 4.0 mi Calm Calm - N/A   Clear
8:34 AM 53.6 °F 53.6 °F 100% 30.15 in 4.0 mi Calm Calm - N/A   Clear
8:55 AM 57.2 °F 53.6 °F 88% 30.15 in 5.0 mi Calm Calm - N/A   Clear
9:14 AM 59.0 °F 53.6 °F 82% 30.15 in 7.0 mi SSW 3.5 mph - N/A   Clear
9:34 AM 60.8 °F 53.6 °F 77% 30.15 in 7.0 mi Calm Calm - N/A   Clear
9:55 AM 62.6 °F 55.4 °F 77% 30.15 in 10.0 mi Calm Calm - N/A   Clear
10:14 AM 64.4 °F 55.4 °F 73% 30.15 in 10.0 mi Calm Calm - N/A   Clear
10:34 AM 66.2 °F 55.4 °F 68% 30.15 in 10.0 mi Calm Calm - N/A   Clear
10:55 AM 68.0 °F 55.4 °F 64% 30.16 in 10.0 mi SSW 3.5 mph - N/A   Clear
11:14 AM 69.8 °F 55.4 °F 60% 30.15 in 10.0 mi WSW 3.5 mph - N/A   Clear
11:34 AM 71.6 °F 57.2 °F 60% 30.15 in 10.0 mi Calm Calm - N/A   Clear
11:55 AM 71.6 °F 55.4 °F 57% 30.15 in 10.0 mi WNW 4.6 mph - N/A   Clear
12:14 PM 73.4 °F 55.4 °F 53% 30.15 in 10.0 mi WNW 8.1 mph - N/A   Clear
12:34 PM 73.4 °F 55.4 °F 53% 30.14 in 10.0 mi NW 4.6 mph - N/A   Clear
12:55 PM 75.2 °F 55.4 °F 50% 30.13 in 10.0 mi WSW 3.5 mph - N/A   Clear
1:14 PM 77.0 °F 55.4 °F 47% 30.13 in 10.0 mi West 5.8 mph - N/A   Clear
1:34 PM 77.0 °F 53.6 °F 44% 30.13 in 10.0 mi West 4.6 mph - N/A   Clear
1:55 PM 77.0 °F 53.6 °F 44% 30.12 in 10.0 mi West 5.8 mph - N/A   Clear
2:14 PM 77.0 °F 53.6 °F 44% 30.12 in 10.0 mi WSW 3.5 mph - N/A   Clear
2:34 PM 78.8 °F 57.2 °F 47% 30.12 in 10.0 mi WNW 5.8 mph - N/A   Clear
2:55 PM 78.8 °F 53.6 °F 42% 30.12 in 10.0 mi West 6.9 mph - N/A   Clear
3:14 PM 78.8 °F 55.4 °F 44% 30.12 in 10.0 mi WNW 8.1 mph - N/A   Clear
3:34 PM 78.8 °F 55.4 °F 44% 30.12 in 10.0 mi WNW 5.8 mph - N/A   Clear
3:55 PM 78.8 °F 55.4 °F 44% 30.11 in 10.0 mi WSW 6.9 mph - N/A   Clear
4:14 PM 78.8 °F 53.6 °F 42% 30.11 in 10.0 mi Calm Calm - N/A   Clear
4:35 PM 78.8 °F 53.6 °F 42% 30.11 in 10.0 mi West 5.8 mph - N/A   Clear
4:55 PM 78.8 °F 53.6 °F 42% 30.11 in 10.0 mi West 10.4 mph - N/A   Clear
5:14 PM 78.8 °F 53.6 °F 42% 30.11 in 10.0 mi West 6.9 mph - N/A   Clear
5:35 PM 78.8 °F 53.6 °F 42% 30.10 in 10.0 mi West 6.9 mph - N/A   Clear
5:55 PM 77.0 °F 51.8 °F 41% 30.10 in 10.0 mi West 4.6 mph - N/A   Clear
6:14 PM 77.0 °F 51.8 °F 41% 30.10 in 10.0 mi WSW 4.6 mph - N/A   Clear
6:35 PM 77.0 °F 51.8 °F 41% 30.09 in 10.0 mi WSW 4.6 mph - N/A   Clear
6:55 PM 75.2 °F 53.6 °F 47% 30.09 in 10.0 mi SW 3.5 mph - N/A   Clear
7:14 PM 73.4 °F 55.4 °F 53% 30.08 in 10.0 mi SSW 4.6 mph - N/A   Clear
7:35 PM 71.6 °F 57.2 °F 60% 30.09 in 10.0 mi Calm Calm - N/A   Clear
7:55 PM 68.0 °F 59.0 °F 73% 30.09 in 10.0 mi Calm Calm - N/A   Clear
8:14 PM 64.4 °F 59.0 °F 83% 30.09 in 10.0 mi Calm Calm - N/A   Clear
8:35 PM 62.6 °F 59.0 °F 88% 30.10 in 10.0 mi Calm Calm - N/A   Clear
8:55 PM 60.8 °F 59.0 °F 94% 30.11 in 10.0 mi Calm Calm - N/A   Clear
9:14 PM 60.8 °F 57.2 °F 88% 30.11 in 10.0 mi Calm Calm - N/A   Clear
9:35 PM 60.8 °F 57.2 °F 88% 30.11 in 10.0 mi Calm Calm - N/A   Clear
9:54 PM 60.8 °F 55.4 °F 82% 30.12 in 10.0 mi Calm Calm - N/A   Clear
10:14 PM 59.0 °F 57.2 °F 94% 30.12 in 10.0 mi Calm Calm - N/A   Clear
10:35 PM 59.0 °F 55.4 °F 88% 30.12 in 10.0 mi SW 3.5 mph - N/A   Clear
10:54 PM 59.0 °F 55.4 °F 88% 30.12 in 10.0 mi Calm Calm - N/A   Clear
11:14 PM 57.2 °F 53.6 °F 88% 30.12 in 10.0 mi Calm Calm - N/A   Clear
11:35 PM 57.2 °F 53.6 °F 88% 30.12 in 10.0 mi Calm Calm - N/A   Clear
11:54 PM 55.4 °F 53.6 °F 94% 30.12 in 10.0 mi Calm Calm - N/A   Clear